Location: *
(50.2903°S, 172.5375°W)
Time: 23:11:24
(UTC+00:00)

Cosmos 1818 - Pass Details

Date: 17 November 2019
Orbit: 776 x 798 km, 65.0° (Epoch: 05 December)

Event Time Altitude Azimuth Distance (km) Brightness Sun altitude
Rises 14:14:48 0° 220° (SW) 3,295 6.9 -10.2°
Reaches altitude 10° 14:17:15 10° 217° (SW) 2,364 6.2 -9.9°
Maximum altitude 14:22:40 66° 134° (SE) 864 4.1 -9.3°
Drops below altitude 10° 14:28:03 10° 51° (NE) 2,351 6.1 -8.7°
Sets 14:30:29 0° 48° (NE) 3,276 6.8 -8.5°
